This is the latest recevied weather packets stored in our database for station/object K7AEL. If no packets are shown the sender has not sent any weather packets the latest 10 day(s).
| Time | Temp. | Humidity | Pressure | Rain* | Wind** | Luminosity | Snow |
|---|---|---|---|---|---|---|---|
| 1777993468 | 16.67° C | 85% | 1013.7 hPa | 0 mm | - | 169 W/m² | - |
| 1777993162 | 16.67° C | 86% | 1013.8 hPa | 0 mm | - | 78 W/m² | - |
| 1777992860 | 16.67° C | 87% | 1013.8 hPa | 0 mm | - | 76 W/m² | - |
| 1777992558 | 16.11° C | 87% | 1013.8 hPa | 0 mm | - | 64 W/m² | - |
| 1777992256 | 16.11° C | 88% | 1013.8 hPa | 0 mm | - | 52 W/m² | - |
| 1777991953 | 15.56° C | 89% | 1013.7 hPa | 0 mm | - | 58 W/m² | - |
| 1777991651 | 15.56° C | 90% | 1013.6 hPa | 0 mm | - | 30 W/m² | - |
| 1777991347 | 16.11° C | 91% | 1013.6 hPa | 0 mm | - | 43 W/m² | - |
| 1777991045 | 15.56° C | 91% | 1013.8 hPa | 0 mm | - | 52 W/m² | - |
| 1777990742 | 15.56° C | 92% | 1013.7 hPa | 0 mm | - | 63 W/m² | - |
| 1777990439 | 15.56° C | 92% | 1013.5 hPa | 0 mm | - | 66 W/m² | - |
| 1777989832 | 15.56° C | 92% | 1013.7 hPa | 0 mm | - | 30 W/m² | - |
| 1777989529 | 15.56° C | 93% | 1013.5 hPa | 0 mm | - | 31 W/m² | - |
| 1777989226 | 15.56° C | 93% | 1013.4 hPa | 0 mm | - | 50 W/m² | - |
| 1777988922 | 15.56° C | 93% | 1013.3 hPa | 0 mm | - | 40 W/m² | - |
| 1777988619 | 15.56° C | 93% | 1013.3 hPa | 0 mm | - | 27 W/m² | - |
| 1777988315 | 15.56° C | 93% | 1013.3 hPa | 0 mm | - | 32 W/m² | - |
| 1777988012 | 15° C | 93% | 1013.2 hPa | 0 mm | - | 30 W/m² | - |
| 1777987708 | 15° C | 93% | 1012.9 hPa | 0 mm | - | 24 W/m² | - |
| 1777987405 | 15° C | 93% | 1013.2 hPa | 0 mm | - | 23 W/m² | - |
| 1777987102 | 15° C | 93% | 1013 hPa | 0 mm | - | 29 W/m² | - |
| 1777986800 | 15° C | 93% | 1013 hPa | 0 mm | - | 21 W/m² | - |
| 1777986497 | 15° C | 93% | 1012.9 hPa | 0 mm | - | 17 W/m² | - |
| 1777986195 | 15° C | 93% | 1012.9 hPa | 0 mm | - | 12 W/m² | - |
| 1777985892 | 15° C | 93% | 1012.8 hPa | 0 mm | - | 8 W/m² | - |
* Rain latest hour (hover to see other rain measurements)
** Current wind speed in m/s (hover to see current wind gust speed)